Weather in Tuymazy

Russia / Republic of Bashkortostan     54°35′59″N   53°41′42″E
temp.,
°C
wind,
m/s
gust,
m/s
humid.,
%
clouds,
%
prec.,
mm/h
press.,
hPa
HPBL,
m
4 march, thu
thu423:00−6w41095100 0.9 1003355
02:00−7wnw51191100 0.6 1003529
05:00−11w479492 0.6 1004135
08:00−12sw489554 0.0 1004154
11:00−8sw6129265 0.0 1004443
14:00−5sw71191100 0.1 1002509
17:00−4sw71392100 0.2 1000741
20:00−4ssw81791100 0.5 997886
5 march, fri
fri523:000wsw8159299 0.9 9961020
02:00−1w61389100 0.4 997868
05:00−4w51386100 0.5 999537
08:00−5wsw3992100 0.1 1000411
11:00−4wnw3496100 1.1 1001342
14:00−4nw3495100 1.2 1002375
17:00−4nnw3588100 1.8 1004598
20:00−11nw238976 0.0 100721
6 march, sat
sat623:00−15wsw118638 0.0 101020
02:00−16sw22860 0.0 101120
05:00−16sw23830 0.0 101321
08:00−16ssw338823 0.0 101330
11:00−11sw369021 0.0 1013261
14:00−8wsw589178 0.0 1013559
17:00−7wsw459088 0.1 1013595
20:00−11wsw2395100 0.1 101232
7 march, sun
sun723:00−14nw2496100 0.2 101392
02:00−18nw2296100 0.0 101221
05:00−22nw129964 0.0 101220
08:00−24wnw1210052 0.0 101220
11:00−18wnw249463 0.0 1013229
14:00−14wnw248793 0.0 1013421
17:00−12wsw358792 0.0 1013499
20:00−16s349541 0.0 101357
8 march, mon
mon823:00−16ssw4109464 0.0 1012233
02:00−15s5129390 0.0 1009340
05:00−13s7159196 0.1 1006454
08:00−10ssw81787100 0.3 1002719
11:00−5sw81492100 0.8 10021086
14:00−6wsw697459 0.4 1004805
17:00−6ssw497829 0.4 1005581
20:00−7sse4129495 0.1 1003460